Regional Weather Roundup
Issued by NWS Jackson, KY

Home | Current Version | Previous Version | Graphics & Text | Print | Product List | Glossary On
Versions: 1 2 3 4 5 6 7 8 9 10 11 12 13 14 15 16 17 18 19 20 21 22 23 24 25 26 27
000
ASUS43 KJKL 241410
RWRJKL

EAST KENTUCKY HOURLY WEATHER ROUNDUP
NATIONAL WEATHER SERVICE JACKSON KY
1000 AM EDT MON APR 24 2017

NOTE: "FAIR" INDICATES FEW OR NO CLOUDS BELOW 12,000 FEET WITH
NO SIGNIFICANT WEATHER AND/OR OBSTRUCTIONS TO VISIBILITY.

* THESE REPORTS ARE NOT UNDER NWS QUALITY CONTROL AND MAY NOT
  REPORT WEATHER SUCH AS PRECIPITATION AND FOG.

KYZ079-080-083-085-087-088-110-112-115-119-120-241500
...EASTERN KENTUCKY...

CITY           SKY/WX    TMP DP  RH WIND       PRES   REMARKS
JACKSON        CLOUDY    52  48  86 VRB3      29.88R
LONDON         CLOUDY    53  48  83 E5        29.85F
SOMERSET*      CLOUDY    52  50  93 E5        29.87R
WILLIAMSBURG*  CLOUDY    54  54 100 E3        29.85
MIDDLESBORO*   SUNNY     59  52  77 CALM      29.83F
HARLAN APT*    MOSUNNY   54  48  82 CALM      29.84
PIKE CO APT*     N/A     53  51  90 E6        29.88
BIG SANDY APT* CLOUDY    56  52  85 E7        29.89
$$

KYZ035-036-041-042-044-050-067-078-099-241500
...CENTRAL KENTUCKY...

CITY           SKY/WX    TMP DP  RH WIND       PRES   REMARKS
DANVILLE*      CLOUDY    55  50  82 E9        29.89S
LEXINGTON      CLOUDY    59  47  64 E17       29.88F
FRANKFORT      CLOUDY    58  42  55 NE8       29.88S
LOUISVILLE     MOSUNNY   63  43  48 NE13      29.89S
GLASGOW*       CLOUDY    57  50  78 NE8       29.85F
BOWLING GREEN  SUNNY     61  53  75 NE7       29.87S
$$

KYZ091>093-OHZ055-061-077-WVZ005-015-034-035-042-241500
...SOUTHERN OHIO/WEST VIRGINIA...

CITY           SKY/WX    TMP DP  RH WIND       PRES   REMARKS
COVINGTON      MOSUNNY   58  39  49 NE10      29.93S
COLUMBUS       MOSUNNY   61  41  47 E10       29.96S
DAYTON         MOSUNNY   60  34  37 NE14      29.97F
WILMINGTON     SUNNY     56  42  59 NE10      29.94F
HUNTINGTON     PTSUNNY   59  48  67 NE9       29.90S
CHARLESTON     CLOUDY    56  48  74 N5        29.91S
PINEVILLE*     CLOUDY    53  48  82 MISG      29.96R
BECKLEY        CLOUDY    48  45  89 E9        29.92R
BLUEFIELD      CLOUDY    47  45  93 E9G17     29.90F
$$

VAZ002-007-008-TNZ017-027-036-066-071-241500
...SOUTHWEST VIRGINIA/EAST TENNESSEE...

CITY           SKY/WX    TMP DP  RH WIND       PRES   REMARKS
WISE*          CLOUDY    48  48 100 CALM      29.89R FOG
JONESVILLE*      N/A     57  52  82 E3        29.85
ABINGDON*      CLOUDY    54  49  82 E8        29.86F
BRISTOL        PTSUNNY   57  49  74 NE8       29.84F
MORRISTOWN*    SUNNY     57  50  77 E7G14     29.80
SEVIERVILLE*   CLOUDY    54  50  87 VRB5      29.81R
KNOXVILLE      CLOUDY    56  50  80 NE12      29.80S
OAK RIDGE      CLOUDY    59  50  72 E9        29.83R
CROSSVILLE     CLOUDY    53  50  89 NE8       29.82F
NASHVILLE      CLOUDY    56  53  90 N7        29.86R
$$

...KEY TO REMARKS...
VSB - VISIBILITY IN MILES
WCI - WIND CHILL INDEX
HX  - HEAT INDEX

$$




USA.gov is the U.S. government's official web portal to all federal, state and local government web resources and services.